Location: Bo?a Wola
(50.4192°N, 19.7966°E)
Time: 02:38:07
(UTC+00:00)

Daily predictions for brighter satellites

Satellite Brightness Start Highest point End
(mag) Time Altitude Azimuth Time Altitude Azimuth Time Altitude Azimuth
Cosmos 2082 3.8 00:03:45 20° SSW 00:07:37 67° ESE 00:13:13 10° NNE
Cosmos 292 Rocket 3.7 00:04:41 22° SSW 00:07:47 87° ESE 00:12:38 10° NNE
Cosmos 1544 Rocket 3.8 00:04:39 10° N 00:09:07 70° ENE 00:12:56 14° SSE
Cosmos 1869 3.2 00:05:25 10° N 00:09:08 77° E 00:11:48 18° SSE
Cosmos 2227 Rocket 2.7 00:05:20 15° SW 00:09:57 53° NW 00:15:31 10° NNE
Cosmos 1943 3.5 00:04:30 10° NNW 00:10:08 67° ENE 00:15:43 10° SE
IDEFIX/ARIANE 42P 3.3 00:05:08 10° NNE 00:10:13 47° E 00:14:28 14° S
Cosmos 990 Rocket 4.3 00:08:24 18° SW 00:12:08 57° WNW 00:17:12 10° NNE
CZ-2C R/B 4.4 00:09:56 10° NNE 00:14:52 33° E 00:19:33 10° SSE
Cosmos 2228 3.5 00:10:52 10° N 00:15:10 60° ENE 00:19:18 11° SSE
CZ-2C R/B 3.1 00:10:46 10° SSE 00:15:58 62° ENE 00:21:19 10° N
SL-12 R/B(2) 4.5 00:09:26 14° SW 00:16:47 86° NW 00:26:56 10° NE
GEOS 3 Rocket 4.2 00:11:57 10° NE 00:17:01 55° NW 00:22:00 10° WSW
CENTAUR R/B 2.6 00:12:18 16° SW 00:17:14 81° NW 00:24:36 10° NE
CZ-2D R/B 3.1 00:12:41 10° NNE 00:17:43 40° E 00:22:29 11° SSE
Meteor 1-11 4.3 00:15:36 18° S 00:20:02 88° ESE 00:25:54 10° NNE
H-2A R/B 4.2 00:17:45 10° NNW 00:20:37 18° WNW 00:23:26 10° W
Cosmos 1975 Rocket 3.3 00:21:39 20° SSW 00:24:29 57° WNW 00:28:51 10° N
COBE Rocket 4.0 00:20:58 10° NNE 00:26:09 87° ESE 00:30:13 17° SSW
SL-4 R/B 4.2 00:26:04 10° WSW 00:26:25 11° WSW 00:26:25 11° WSW
Cosmos 2297 Rocket 3.9 00:25:59 10° W 00:30:42 26° NW 00:35:26 10° NNE
Cosmos 2219 3.5 00:27:36 15° SW 00:32:10 61° WNW 00:37:46 10° NNE
H-2A R/B 3.7 00:28:57 10° NNE 00:32:54 60° ESE 00:36:04 15° S
Cosmos 2341 Rocket 4.1 00:28:16 17° SSW 00:33:15 73° WNW 00:39:30 10° N
NPP 3.8 00:28:42 10° NNE 00:34:06 71° ESE 00:38:46 14° S
Cosmos 1455 Rocket 4.3 00:31:17 10° NNW 00:35:02 27° W 00:37:36 16° SW
Aureole 1 Rocket 3.6 00:38:34 16° SW 00:41:18 43° WNW 00:45:40 10° NNE
ADEOS II 2.9 00:40:17 10° NNE 00:45:21 46° E 00:50:22 10° S
Cosmos 372 Rocket 4.1 00:42:35 16° SW 00:46:49 70° WNW 00:52:03 10° NNE
Cosmos 921 Rocket 3.7 00:42:54 10° NNW 00:47:06 54° ENE 00:51:12 10° SE
Cosmos 494 Rocket 4.4 00:41:54 10° NNW 00:47:08 67° ENE 00:52:21 10° SSE
Cosmos 1536 Rocket 3.6 00:50:03 13° S 00:54:03 84° E 00:58:29 10° NNE
Resurs 1-4 Rocket 2.1 00:52:46 10° NNE 00:58:05 86° ESE 01:03:09 11° SSW
BREEZE-M DEB (TANK) 3.8 00:57:31 10° W 00:58:58 13° WSW 00:58:58 13° WSW
Cosmos 1726 Rocket 4.5 00:55:55 10° N 01:00:17 50° ENE 01:04:34 10° SSE
Cosmos 1606 3.8 00:58:46 10° NNW 01:01:46 25° W 01:04:04 14° SW
NOSS 3-2 (A) 3.6 00:56:57 10° WSW 01:02:14 64° NW 01:08:42 10° NE
Cosmos 1937 Rocket 3.8 00:58:06 13° SW 01:02:42 61° WNW 01:07:55 10° NNE
Cosmos 2263 Rocket 2.7 00:58:49 11° SW 01:03:57 51° NW 01:09:23 10° NNE
Cosmos 1898 Rocket 4.2 01:01:19 12° SW 01:05:57 44° WNW 01:10:55 10° NNE
CZ-4C R/B 4.1 01:01:45 10° WNW 01:06:20 28° NNW 01:11:56 10° NE
Cosmos 1821 Rocket 4.0 01:01:26 10° S 01:07:30 84° W 01:13:43 10° N
NOSS 3-2 (C) 3.3 01:03:08 13° SW 01:07:58 80° SE 01:14:21 10° NE
Orbus 7S? 3.6 01:05:52 10° WNW 01:08:31 35° SW 01:12:39 10° SSE
USA 267 4.2 01:02:33 10° ENE 01:08:31 36° SE 01:14:28 10° SSW
Cosmos 2218 Rocket 4.4 01:04:28 12° SSW 01:10:04 52° WNW 01:16:07 10° N
Meteor 1-27 4.4 01:08:05 10° NNW 01:13:50 60° W 01:19:29 10° S
Cosmos 1607 4.1 01:08:16 10° NW 01:14:46 89° NE 01:21:05 10° SE
BlueWalker 3 2.6 01:12:42 10° WNW 01:16:24 57° N 01:20:06 10° E
Cosmos 1461 3.0 01:14:31 11° SW 01:18:17 61° NW 01:22:08 10° NE
Cosmos 1812 3.7 01:14:54 10° N 01:18:21 44° ENE 01:21:47 10° SSE
AQUA 4.0 01:14:53 10° NNE 01:19:38 71° ESE 01:24:20 10° S
Cosmos 1844 Rocket 3.1 01:18:08 10° SSW 01:23:37 61° ESE 01:29:08 10° NE
UNK 4.1 01:19:13 10° SSE 01:23:48 68° ENE 01:28:21 10° N
BREEZE-M DEB (TANK) 3.6 01:25:57 11° SW 01:26:41 12° SSW 01:27:58 10° S
MSX 4.2 01:21:53 10° N 01:27:29 55° WNW 01:33:02 10° SW
SL-24 DEB 4.2 01:24:22 10° N 01:28:57 84° W 01:33:31 10° S
BREEZE-M R/B 4.3 01:24:57 10° WNW 01:33:28 67° SSW 01:39:12 10° SE
ALOS 2.5 01:29:37 10° NNE 01:34:15 73° ESE 01:38:51 10° S
Cosmos 2058 Rocket 3.6 01:33:12 10° N 01:37:39 64° ENE 01:42:01 10° SSE
SL-16 R/B 4.2 01:37:26 10° W 01:37:56 10° W 01:38:27 10° W
SL-16 R/B 2.6 01:32:10 10° S 01:38:22 65° WSW 01:44:35 10° NNW
Cosmos 2123 Rocket 4.0 01:33:49 10° N 01:40:02 83° W 01:46:14 10° S
Iridium 2 2.6 01:38:47 10° S 01:41:14 78° E 01:43:44 10° N
Cosmos 1892 Rocket 3.7 01:38:39 10° S 01:43:02 80° E 01:47:30 10° NNE
Cosmos 1603 4.2 01:38:24 10° NW 01:43:48 43° WSW 01:49:09 10° S
USA 234 3.4 01:39:16 10° ESE 01:45:51 85° NNE 01:52:26 10° WNW
Cosmos 1934 Rocket 4.2 01:40:27 10° S 01:46:48 86° E 01:53:14 10° N
